Lulu Pass Weather Station

This weather station provides temperature, relative humidity (RH), wind speed, gust or max wind speed, and wind direction at 10014ft near Lulu Pass at the head of Fisher Creek. This data can be used with temperature and precipitation data from the Fisher Creek SNOTEL site.

This weather station was purchased by the Friends of the Avalanche Center.

If the data has not been updated recently you can view it directly on datagarrison.com

Elevation
10014ft
Jump to table bottom
Date Time Temperature
deg F
RH, % Wind Speed Wind Gust Wind Direction
10/19/19 02:00 16.8 90 10 22 SW - 230
10/19/19 01:00 16.6 83 11 25 W - 271
10/19/19 00:00 17.4 82 13 32 W - 274
10/18/19 23:00 17.7 82 15 35 W - 278
10/18/19 22:00 18.0 85 18 35 NW - 299
10/18/19 21:00 18.8 85 19 40 NW - 298
10/18/19 20:00 18.9 91 16 34 NW - 300
10/18/19 19:00 19.1 94 19 32 NW - 307
10/18/19 18:00 18.9 93 19 37 NW - 300
10/18/19 17:00 19.8 94 16 43 W - 289
10/18/19 16:00 19.8 91 12 31 SW - 241
10/18/19 15:00 20.4 82 14 28 SW - 232
10/18/19 14:00 20.8 82 16 34 SW - 227
10/18/19 13:00 20.8 79 14 31 SW - 227
10/18/19 12:00 20.1 85 12 28 SW - 240
10/18/19 11:00 18.8 85 11 24 SW - 240
10/18/19 10:00 18.3 87 11 24 SW - 247
10/18/19 09:00 17.6 93 10 27 W - 260
10/18/19 08:00 17.4 90 8 22 W - 256
10/18/19 07:00 17.3 87 12 25 W - 277
10/18/19 06:00 18.7 90 17 33 NW - 305
10/18/19 05:00 20.3 95 14 29 W - 289
10/18/19 04:00 21.5 93 11 22 W - 279
10/18/19 03:00 22.1 96 11 22 SW - 243
10/18/19 02:00 23.1 94 10 24 SW - 247
10/18/19 01:00 24.1 90 9 25 SW - 244
10/18/19 00:00 24.6 87 14 27 SW - 220
10/17/19 23:00 25.4 89 21 39 SW - 208
10/17/19 22:00 26.4 95 18 41 SW - 205
10/17/19 21:00 26.5 88 13 30 SW - 225
10/17/19 20:00 30.5 76 15 37 SW - 209
10/17/19 19:00 31.8 64 15 36 SW - 208
10/17/19 18:00 33.3 54 13 29 SW - 233
10/17/19 17:00 36.7 49 17 38 SW - 205
10/17/19 16:00 38.0 42 19 44 SW - 218
10/17/19 15:00 39.7 39 29 56 SW - 212
10/17/19 14:00 40.4 37 23 50 SW - 218
10/17/19 13:00 41.5 34 24 51 SW - 215
10/17/19 12:00 41.3 33 24 41 SW - 209
10/17/19 11:00 41.5 30 23 42 SW - 205
10/17/19 10:00 41.3 28 20 41 S - 197
10/17/19 09:00 40.8 28 17 38 S - 191
10/17/19 08:00 38.9 27 14 29 S - 185
10/17/19 07:00 39.7 25 17 38 S - 190
10/17/19 06:00 38.9 26 19 36 S - 199
10/17/19 05:00 38.4 27 20 37 SW - 204
10/17/19 04:00 37.1 29 13 26 SW - 209
10/17/19 03:00 36.2 29 10 25 SW - 216
10/17/19 02:00 37.2 31 14 26 SW - 213
10/17/19 01:00 37.1 30 12 27 SW - 216